Location: Branche des Alpilles
(43.6087°N, 4.6976°E)
Time: 12:03:03
(UTC+00:00)

Cosmos 1603 - Pass Details

Date: 30 November 2020
Orbit: 831 x 859 km, 71.0° (Epoch: 25 January)

Event Time Altitude Azimuth Distance (km) Brightness Sun altitude
Rises 17:58:06 0° 201° (SSW) 3,375 7.3 -19.8°
Reaches altitude 10° 18:00:32 10° 200° (SSW) 2,441 6.5 -20.2°
Maximum altitude 18:06:08 84° 113° (ESE) 844 3.6 -21.2°
Enters shadow 18:09:05 29° 28° (NNE) 1,478 4.6 -21.7°
